User: anonymous   Login
Location: Irma
(52.9170°N, 111.2330°W)
Time: 00:50:27
(UTC-06:00)
Language:

Meteor 1-24 Rocket - Orbit

View from above orbital plane
View from above orbital plane
View from above satellite
View from above satellite

Ground track
Ground track

The orbit data is extracted from the following two-line orbital elements,

1  8800U 76032B   18113.57160875 -.00000038 +00000-0 -27843-4 0  9998
2  8800 081.2478 275.3787 0094637 027.0156 333.5895 14.10104248161725
Epoch (UTC): 23 April 2018 13:43:06
Eccentricity: 0.0094637
inclination: 81.2478°
perigee height: 790 km
apogee height: 927 km
right ascension of ascending node: 275.3787°
argument of perigee: 27.0156°
revolutions per day: 14.10104248
mean anomaly at epoch: 333.5895°
orbit number at epoch: 16172

The dashed part of the orbit path shows where the satellite is in the earth's shadow,  

DLR